When you browse on this site, cookies collect data to enhance your experience and personalize the content and advertising you see.
Visit our Privacy Policy to learn more. By continuing to use the site, you agree to this use of cookies and data.
  • In Österreich
  • Länderverzeichnis
  • Für 7 Tage
  • Wassertemperatur
  • Wetterkarte
  • News
  • Widgets
  • user-avatar
    Anmelden

    Stündliche Wetter Bania Luka

    Heute, 18 Oktober, Freitag

    Zeit Temperatur Niederschläge Wind Luftdruck Luftfeuchtigkeit
    00:00 +12°C° 0 mm 1 m/S 716 mmHg 87%
    01:00 +12°C° 0 mm 1 m/S 716 mmHg 87%
    02:00 +12°C° 0 mm 1 m/S 716 mmHg 88%
    03:00 +12°C° 0 mm 1 m/S 716 mmHg 88%
    04:00 +11°C° 0 mm 1 m/S 716 mmHg 89%
    05:00 +11°C° 0 mm 1 m/S 716 mmHg 88%
    06:00 +12°C° 0 mm 1 m/S 716 mmHg 86%
    07:00 +12°C° 0 mm 1 m/S 716 mmHg 85%
    08:00 +15°C° 0 mm 1 m/S 716 mmHg 74%
    09:00 +18°C° 0 mm 1 m/S 717 mmHg 63%
    10:00 +21°C° 0 mm 1 m/S 717 mmHg 52%
    11:00 +22°C° 0 mm 1 m/S 717 mmHg 48%
    12:00 +23°C° 0 mm 1 m/S 717 mmHg 44%
    13:00 +23°C° 0 mm 1 m/S 717 mmHg 40%
    14:00 +22°C° 0 mm 1 m/S 717 mmHg 45%
    15:00 +21°C° 0 mm 1 m/S 716 mmHg 50%
    16:00 +20°C° 0 mm 1 m/S 716 mmHg 55%
    17:00 +18°C° 0 mm 1 m/S 716 mmHg 61%
    18:00 +15°C° 0 mm 1 m/S 716 mmHg 66%
    19:00 +14°C° 0 mm 1 m/S 715 mmHg 72%
    20:00 +13°C° 0 mm 1 m/S 716 mmHg 73%
    21:00 +13°C° 0 mm 1 m/S 716 mmHg 75%
    22:00 +12°C° 0 mm 1 m/S 716 mmHg 77%
    23:00 +12°C° 0 mm 1 m/S 716 mmHg 78%

    Morgen, 19 Oktober, Samstag

    Zeit Temperatur Niederschläge Wind Luftdruck Luftfeuchtigkeit
    00:00 +12°C° 0 mm 1 m/S 716 mmHg 79%
    01:00 +12°C° 0 mm 1 m/S 716 mmHg 80%
    02:00 +11°C° 0 mm 1 m/S 716 mmHg 81%
    03:00 +11°C° 0 mm 1 m/S 715 mmHg 82%
    04:00 +11°C° 0 mm 1 m/S 715 mmHg 82%
    05:00 +10°C° 0 mm 2 m/S 715 mmHg 81%
    06:00 +12°C° 0 mm 2 m/S 715 mmHg 80%
    07:00 +12°C° 0 mm 2 m/S 716 mmHg 79%
    08:00 +15°C° 0 mm 1 m/S 716 mmHg 69%
    09:00 +18°C° 0 mm 1 m/S 716 mmHg 59%
    10:00 +21°C° 0 mm 1 m/S 717 mmHg 49%
    11:00 +22°C° 0 mm 1 m/S 717 mmHg 47%
    12:00 +23°C° 0 mm 2 m/S 717 mmHg 45%
    13:00 +24°C° 0 mm 2 m/S 716 mmHg 42%
    14:00 +23°C° 0 mm 2 m/S 716 mmHg 48%
    15:00 +22°C° 0 mm 1 m/S 716 mmHg 54%
    16:00 +21°C° 0 mm 1 m/S 716 mmHg 60%
    17:00 +19°C° 0 mm 1 m/S 716 mmHg 66%
    18:00 +16°C° 0 mm 2 m/S 716 mmHg 73%
    19:00 +14°C° 0 mm 2 m/S 716 mmHg 80%
    20:00 +14°C° 0 mm 2 m/S 716 mmHg 82%
    21:00 +13°C° 0 mm 2 m/S 716 mmHg 83%
    22:00 +13°C° 0 mm 2 m/S 716 mmHg 85%
    23:00 +13°C° 0 mm 2 m/S 716 mmHg 86%

    übermorgen, 20 Oktober, Sonntag

    Zeit Temperatur Niederschläge Wind Luftdruck Luftfeuchtigkeit
    00:00 +13°C° 0 mm 2 m/S 716 mmHg 86%
    01:00 +12°C° 0 mm 2 m/S 716 mmHg 86%
    02:00 +12°C° 0 mm 2 m/S 716 mmHg 86%
    03:00 +12°C° 0 mm 2 m/S 716 mmHg 85%
    04:00 +12°C° 0 mm 2 m/S 716 mmHg 85%
    05:00 +12°C° 0 mm 2 m/S 716 mmHg 84%
    06:00 +13°C° 0 mm 2 m/S 716 mmHg 83%
    07:00 +13°C° 0 mm 2 m/S 716 mmHg 83%
    08:00 +15°C° 0 mm 2 m/S 717 mmHg 73%
    09:00 +18°C° 0 mm 2 m/S 717 mmHg 64%
    10:00 +22°C° 0 mm 1 m/S 718 mmHg 54%
    11:00 +23°C° 0 mm 1 m/S 718 mmHg 50%
    12:00 +24°C° 0 mm 2 m/S 718 mmHg 46%
    13:00 +25°C° 0 mm 2 m/S 718 mmHg 41%
    14:00 +24°C° 0 mm 1 m/S 718 mmHg 47%
    15:00 +23°C° 0 mm 1 m/S 717 mmHg 52%
    16:00 +22°C° 0 mm 1 m/S 717 mmHg 57%
    17:00 +20°C° 0 mm 1 m/S 717 mmHg 64%
    18:00 +17°C° 0 mm 2 m/S 717 mmHg 70%
    19:00 +15°C° 0 mm 2 m/S 717 mmHg 77%
    20:00 +14°C° 0 mm 2 m/S 717 mmHg 77%
    21:00 +14°C° 0 mm 2 m/S 718 mmHg 78%
    22:00 +14°C° 0 mm 2 m/S 718 mmHg 79%
    23:00 +14°C° 0 mm 2 m/S 718 mmHg 75%

    21 Oktober, Montag

    Zeit Temperatur Niederschläge Wind Luftdruck Luftfeuchtigkeit
    00:00 +14°C° 0 mm 2 m/S 717 mmHg 71%
    01:00 +13°C° 0 mm 2 m/S 717 mmHg 68%
    02:00 +13°C° 0 mm 2 m/S 717 mmHg 65%
    03:00 +13°C° 0 mm 2 m/S 717 mmHg 62%
    04:00 +13°C° 0 mm 2 m/S 718 mmHg 59%
    05:00 +14°C° 0 mm 2 m/S 718 mmHg 58%
    06:00 +14°C° 0 mm 2 m/S 718 mmHg 58%
    07:00 +14°C° 0 mm 2 m/S 718 mmHg 57%
    08:00 +18°C° 0 mm 1 m/S 718 mmHg 51%
    09:00 +21°C° 0 mm 1 m/S 719 mmHg 46%
    10:00 +25°C° 0 mm 1 m/S 719 mmHg 40%
    11:00 +26°C° 0 mm 1 m/S 720 mmHg 39%
    12:00 +27°C° 0 mm 1 m/S 720 mmHg 38%
    13:00 +26°C° 0 mm 0 m/S 720 mmHg 37%
    14:00 +25°C° 0 mm 0 m/S 719 mmHg 42%
    15:00 +25°C° 0 mm 1 m/S 719 mmHg 48%
    16:00 +24°C° 0 mm 1 m/S 719 mmHg 54%
    17:00 +22°C° 0 mm 1 m/S 719 mmHg 59%
    18:00 +20°C° 0 mm 1 m/S 719 mmHg 63%
    19:00 +16°C° 0 mm 0 m/S 719 mmHg 68%
    20:00 +18°C° 0 mm 1 m/S 719 mmHg 69%
    21:00 +16°C° 0 mm 1 m/S 719 mmHg 70%
    22:00 +16°C° 0 mm 1 m/S 719 mmHg 71%
    23:00 +16°C° 0 mm 1 m/S 719 mmHg 72%

    22 Oktober, Dienstag

    Zeit Temperatur Niederschläge Wind Luftdruck Luftfeuchtigkeit
    00:00 +14°C° 0 mm 0 m/S 719 mmHg 72%
    01:00 +14°C° 0 mm 0 m/S 719 mmHg 73%
    02:00 +14°C° 0 mm 0 m/S 719 mmHg 74%
    03:00 +14°C° 0 mm 0 m/S 719 mmHg 75%
    04:00 +13°C° 0 mm 0 m/S 719 mmHg 75%
    05:00 +13°C° 0 mm 0 m/S 719 mmHg 76%
    06:00 +13°C° 0 mm 0 m/S 720 mmHg 76%
    07:00 +13°C° 0 mm 0 m/S 720 mmHg 77%
    08:00 +16°C° 0 mm 0 m/S 720 mmHg 69%
    09:00 +20°C° 0 mm 1 m/S 721 mmHg 62%
    10:00 +22°C° 0 mm 1 m/S 721 mmHg 54%
    11:00 +23°C° 0 mm 1 m/S 721 mmHg 53%
    12:00 +23°C° 0 mm 1 m/S 721 mmHg 51%
    13:00 +24°C° 0 mm 1 m/S 721 mmHg 50%
    14:00 +23°C° 0 mm 1 m/S 720 mmHg 57%
    15:00 +22°C° 0 mm 1 m/S 720 mmHg 63%
    16:00 +20°C° 0 mm 1 m/S 720 mmHg 70%
    17:00 +19°C° 0 mm 1 m/S 720 mmHg 76%
    18:00 +15°C° 0 mm 0 m/S 719 mmHg 82%
    19:00 +14°C° 0 mm 0 m/S 719 mmHg 88%
    20:00 +14°C° 0 mm 0 m/S 719 mmHg 89%
    21:00 +13°C° 0 mm 0 m/S 719 mmHg 90%
    22:00 +13°C° 0 mm 0 m/S 719 mmHg 91%
    23:00 +13°C° 0 mm 0 m/S 719 mmHg 91%

    23 Oktober, Mittwoch

    Zeit Temperatur Niederschläge Wind Luftdruck Luftfeuchtigkeit
    00:00 +14°C° 0 mm 1 m/S 719 mmHg 92%
    01:00 +13°C° 0 mm 1 m/S 719 mmHg 92%
    02:00 +13°C° 0 mm 1 m/S 719 mmHg 92%
    03:00 +13°C° 0 mm 1 m/S 719 mmHg 91%
    04:00 +13°C° 0 mm 1 m/S 718 mmHg 91%
    05:00 +13°C° 0 mm 1 m/S 718 mmHg 89%
    06:00 +13°C° 0 mm 1 m/S 718 mmHg 88%
    07:00 +13°C° 0 mm 1 m/S 718 mmHg 86%
    08:00 +16°C° 0 mm 1 m/S 719 mmHg 76%
    09:00 +18°C° 0 mm 0 m/S 719 mmHg 65%
    10:00 +20°C° 0 mm 0 m/S 719 mmHg 55%
    11:00 +22°C° 0 mm 0 m/S 719 mmHg 51%
    12:00 +25°C° 0 mm 1 m/S 719 mmHg 48%
    13:00 +26°C° 0 mm 1 m/S 719 mmHg 44%
    14:00 +24°C° 0 mm 1 m/S 718 mmHg 50%
    15:00 +23°C° 0 mm 1 m/S 718 mmHg 57%
    16:00 +22°C° 0 mm 1 m/S 717 mmHg 64%
    17:00 +20°C° 0 mm 1 m/S 717 mmHg 69%
    18:00 +18°C° 0 mm 1 m/S 717 mmHg 74%
    19:00 +15°C° 0 mm 1 m/S 717 mmHg 79%
    20:00 +15°C° 0 mm 1 m/S 717 mmHg 78%
    21:00 +15°C° 0 mm 1 m/S 717 mmHg 76%
    22:00 +14°C° 0 mm 1 m/S 717 mmHg 74%
    23:00 +14°C° 0 mm 1 m/S 717 mmHg 71%
    Mehr zeigen